Marion, IN

2:24 AM EDT on March 24, 2017 (GMT -0400)
Marion Municipal

Weather History for KMZZ - November, 2012

Change the Weather History Date:

Saturday, November 3, 2012

  Actual Average (KMIE) Record (KMIE)
Temperature  
Mean Temperature 34 °F -  
Max Temperature 39 °F 56 °F 76 °F (1987)
Min Temperature 30 °F 39 °F 17 °F (1991)
Degree Days  
Heating Degree Days 30    
Moisture  
Dew Point 31 °F    
Average Humidity 83    
Maximum Humidity 94    
Minimum Humidity 72    
Precipitation  
Precipitation 0.01 in - - ()
Sea Level Pressure  
Sea Level Pressure 30.15 in    
Wind  
Wind Speed 3 mph (NE)    
Max Wind Speed 10 mph    
Max Gust Speed -    
Visibility 8 miles    
Events Rain , Snow    
Averages and records for this station are not official NWS values.
T = Trace of Precipitation, MM = Missing Value Source: NWS Daily Summary

Daily Weather History Graph

Daily Weather History Graph

Search for Another Location

Airport or City:

Trip Planner

Search our weather history database for the weather conditions in past years. The results will help you decide how hot, cold, wet, or windy it might be!

Date:

Astronomy

Nov. 03, 2012 Rise Set
Actual Time 8:15 AM EDT 6:36 PM EDT
Civil Twilight 7:47 AM EDT 7:04 PM EDT
Nautical Twilight 7:14 AM EDT 7:37 PM EDT
Astronomical Twilight 6:42 AM EDT 8:09 PM EDT
Moon 10:16 PM EDT (11/3) 12:19 PM EDT (11/3)
Length of Visible Light 11h 17m
Length of Day
10h 20m
Waning Gibbous, 80% of the Moon is Illuminated
Nov 3
Waning Gibbous
Nov 6
Last Quarter
Nov 13
New
Nov 20
First Quarter
Nov 28
Full

Hourly Weather History & Observations

Time (EDT) Temp. Windchill Dew Point Humidity Pressure Visibility Wind Dir Wind Speed Gust Speed Precip Events Conditions
12:15 AM 35.4 °F - 30.4 °F 82% 30.11 in 5.0 mi Calm Calm - N/A   Haze
12:35 AM 34.9 °F - 30.2 °F 83% 30.11 in 10.0 mi Calm Calm - N/A   Clear
12:55 AM 33.4 °F 30.4 °F 29.7 °F 86% 30.12 in 10.0 mi NNW 3.5 mph - N/A   Clear
1:15 AM 32.7 °F 29.6 °F 29.8 °F 89% 30.12 in 10.0 mi NW 3.5 mph - N/A   Clear
1:35 AM 32.2 °F 28.9 °F 29.7 °F 90% 30.13 in 10.0 mi NW 3.5 mph - N/A   Clear
2:15 AM 32.4 °F 29.1 °F 30.0 °F 91% 30.13 in 3.0 mi NNW 3.5 mph - N/A Snow Light Snow
2:35 AM 32.7 °F - 30.4 °F 91% 30.13 in 10.0 mi Calm Calm - N/A   Clear
3:15 AM 32.5 °F 29.3 °F 30.2 °F 91% 30.14 in 10.0 mi NNW 3.5 mph - N/A   Clear
3:35 AM 33.3 °F 28.9 °F 30.4 °F 89% 30.14 in 10.0 mi North 4.6 mph - N/A   Clear
3:55 AM 32.9 °F 28.5 °F 30.2 °F 90% 30.13 in 10.0 mi North 4.6 mph - N/A   Clear
4:15 AM 31.6 °F 27.0 °F 29.7 °F 92% 30.13 in 10.0 mi North 4.6 mph - N/A   Clear
4:35 AM 32.0 °F 27.5 °F 30.4 °F 94% 30.14 in 10.0 mi North 4.6 mph - N/A   Clear
4:55 AM 32.0 °F - 29.8 °F 92% 30.14 in 4.0 mi Calm Calm - N/A Snow Light Snow
5:15 AM 30.9 °F - 28.9 °F 92% 30.14 in 4.0 mi Calm Calm - N/A   Clear
5:35 AM 30.6 °F 25.8 °F 29.1 °F 94% 30.13 in 10.0 mi NE 4.6 mph - N/A   Clear
5:55 AM 30.2 °F 24.3 °F 28.8 °F 94% 30.12 in 7.0 mi NE 5.8 mph - N/A   Clear
6:15 AM 30.9 °F 26.2 °F 29.5 °F 94% 30.13 in 10.0 mi NE 4.6 mph - N/A   Clear
6:35 AM 31.5 °F 24.9 °F 29.8 °F 94% 30.14 in 5.0 mi ENE 6.9 mph - N/A   Clear
6:55 AM 32.0 °F 26.4 °F 30.0 °F 92% 30.14 in 7.0 mi ENE 5.8 mph - N/A   Clear
7:15 AM 31.8 °F 27.3 °F 29.7 °F 92% 30.15 in 5.0 mi ENE 4.6 mph - N/A Snow Light Snow
7:35 AM 31.3 °F 25.6 °F 29.3 °F 92% 30.15 in 7.0 mi NE 5.8 mph - N/A Snow Light Snow
7:55 AM 31.1 °F 26.4 °F 29.3 °F 93% 30.15 in 4.0 mi ENE 4.6 mph - N/A Snow Light Snow
8:15 AM 31.1 °F 26.4 °F 29.3 °F 93% 30.16 in 10.0 mi ENE 4.6 mph - N/A   Clear
8:35 AM 31.1 °F - 29.3 °F 93% 30.17 in 10.0 mi Calm Calm - N/A   Clear
8:55 AM 31.1 °F 27.7 °F 29.3 °F 93% 30.17 in 10.0 mi ENE 3.5 mph - N/A   Clear
9:15 AM 31.5 °F - 29.7 °F 93% 30.18 in 10.0 mi Calm Calm - N/A   Mostly Cloudy
9:35 AM 32.0 °F - 30.0 °F 92% 30.19 in 7.0 mi Calm Calm - N/A   Mostly Cloudy
9:55 AM 32.4 °F 27.9 °F 30.6 °F 93% 30.18 in 5.0 mi East 4.6 mph - N/A   Scattered Clouds
10:15 AM 33.6 °F 26.2 °F 30.9 °F 90% 30.18 in 3.0 mi East 9.2 mph - N/A   Scattered Clouds
10:35 AM 34.9 °F 27.7 °F 30.9 °F 85% 30.18 in 2.0 mi ENE 9.2 mph - N/A Snow Light Snow
10:55 AM 35.8 °F 28.8 °F 31.1 °F 83% 30.19 in 3.0 mi East 9.2 mph - N/A Snow Light Snow
11:15 AM 36.7 °F 29.4 °F 30.9 °F 80% 30.18 in 1.8 mi East 10.4 mph - N/A Snow Light Snow
11:35 AM 37.0 °F 31.6 °F 31.3 °F 80% 30.17 in 7.0 mi East 6.9 mph - N/A   Mostly Cloudy
12:15 PM 37.6 °F 34.0 °F 31.1 °F 77% 30.19 in 3.0 mi ENE 4.6 mph - N/A   Haze
12:35 PM 38.1 °F 32.9 °F 31.5 °F 77% 30.18 in 7.0 mi ESE 6.9 mph - N/A   Scattered Clouds
12:55 PM 38.3 °F 33.9 °F 31.3 °F 76% 30.18 in 10.0 mi East 5.8 mph - N/A   Mostly Cloudy
1:15 PM 38.5 °F 34.1 °F 31.5 °F 76% 30.17 in 10.0 mi NE 5.8 mph - N/A   Overcast
1:35 PM 38.8 °F 35.4 °F 31.6 °F 75% 30.16 in 3.0 mi ENE 4.6 mph - N/A   Haze
1:55 PM 38.8 °F 33.2 °F 31.5 °F 75% 30.16 in 7.0 mi ENE 8.1 mph - N/A   Overcast
2:15 PM 38.5 °F 34.1 °F 31.6 °F 76% 30.15 in 7.0 mi ENE 5.8 mph - N/A   Overcast
2:35 PM 38.3 °F 34.8 °F 31.8 °F 77% 30.15 in 5.0 mi East 4.6 mph - 0.01 in Rain Light Rain
3:15 PM 38.8 °F 34.6 °F 32.0 °F 76% 30.15 in 10.0 mi ENE 5.8 mph - N/A   Overcast
3:35 PM 39.2 °F 34.2 °F 32.0 °F 75% 30.14 in 10.0 mi NE 6.9 mph - N/A   Overcast
3:55 PM 39.2 °F 34.2 °F 32.0 °F 75% 30.14 in 10.0 mi ENE 6.9 mph - N/A   Overcast
4:15 PM 39.2 °F 35.9 °F 32.0 °F 75% 30.14 in 10.0 mi NE 4.6 mph - N/A   Overcast
4:35 PM 39.6 °F 37.4 °F 32.0 °F 74% 30.15 in 2.0 mi NE 3.5 mph - N/A   Haze
4:55 PM 39.6 °F - 31.6 °F 73% 30.14 in 10.0 mi Calm Calm - N/A   Overcast
5:15 PM 39.7 °F 36.5 °F 31.8 °F 73% 30.14 in 10.0 mi ENE 4.6 mph - N/A   Overcast
5:35 PM 39.7 °F 36.5 °F 31.8 °F 73% 30.15 in 10.0 mi NNE 4.6 mph - N/A   Overcast
5:55 PM 39.9 °F 37.8 °F 31.8 °F 73% 30.15 in 4.0 mi NNE 3.5 mph - N/A   Haze
6:15 PM 39.9 °F 37.8 °F 31.6 °F 72% 30.14 in 4.0 mi North 3.5 mph - N/A   Unknown
6:35 PM 39.7 °F - 31.6 °F 73% 30.14 in 5.0 mi Calm Calm - N/A   Haze
7:15 PM 39.6 °F - 32.0 °F 74% 30.15 in 10.0 mi Calm Calm - N/A   Overcast
7:35 PM 39.6 °F - 31.8 °F 74% 30.15 in 7.0 mi Calm Calm - N/A   Overcast
7:55 PM 39.4 °F - 32.9 °F 78% 30.15 in 7.0 mi Calm Calm - N/A   Overcast
8:15 PM 39.2 °F - 33.6 °F 80% 30.15 in 10.0 mi Calm Calm - N/A   Overcast
8:35 PM 39.2 °F - 32.7 °F 78% 30.16 in 10.0 mi Calm Calm - N/A   Overcast
8:55 PM 39.4 °F - 32.0 °F 75% 30.15 in 10.0 mi Calm Calm - N/A   Overcast
9:15 PM 39.0 °F - 33.3 °F 80% 30.15 in 7.0 mi Calm Calm - N/A   Overcast
9:35 PM 38.7 °F - 34.0 °F 83% 30.15 in 10.0 mi Calm Calm - N/A   Overcast
9:55 PM 38.5 °F - 34.0 °F 84% 30.15 in 10.0 mi Calm Calm - N/A   Overcast
10:15 PM 38.7 °F - 33.4 °F 81% 30.16 in 7.0 mi Calm Calm - N/A   Overcast
10:35 PM 38.7 °F - 32.2 °F 78% 30.16 in 10.0 mi Calm Calm - N/A   Overcast
11:15 PM 37.6 °F 33.1 °F 31.6 °F 79% 30.16 in 10.0 mi NNE 5.8 mph - N/A   Mostly Cloudy
11:35 PM 36.9 °F 32.2 °F 31.5 °F 81% 30.17 in 10.0 mi NNE 5.8 mph - N/A   Mostly Cloudy
11:55 PM 36.5 °F 32.7 °F 30.9 °F 80% 30.17 in 7.0 mi NNE 4.6 mph - N/A   Scattered Clouds